| time (UTC) | temp F | wind direction | speed knots | gust knots | rain 1hr in | rain 24hr in | rain mn in | humidity % | barometer mb |
| 20260505192039 | 51 | 0 | 0.0 | 0.0 | 0.00 | 0.00 | 0.00 | 93 | 1027.5 |
| 20260505191557 | 51 | 0 | 0.0 | 0.0 | 0.00 | 0.00 | 0.00 | 93 | 1027.5 |
| 20260505191041 | 51 | 0 | 0.0 | 0.0 | 0.00 | 0.00 | 0.00 | 93 | 1027.4 |
| 20260505190543 | 51 | 0 | 0.0 | 0.0 | 0.00 | 0.00 | 0.00 | 93 | 1027.4 |
| 20260505190050 | 51 | 0 | 0.0 | 0.0 | 0.00 | 0.00 | 0.00 | 93 | 1027.4 |
| 20260505185539 | 51 | 0 | 0.0 | 0.0 | 0.00 | 0.00 | 0.00 | 93 | 1027.4 |
| 20260505185039 | 51 | 0 | 0.0 | 0.0 | 0.00 | 0.00 | 0.00 | 93 | 1027.5 |
| 20260505184548 | 51 | 0 | 0.0 | 0.0 | 0.00 | 0.00 | 0.00 | 93 | 1027.5 |
| 20260505184040 | 51 | 0 | 0.0 | 0.0 | 0.00 | 0.00 | 0.00 | 93 | 1027.4 |
| 20260505183541 | 51 | 0 | 0.0 | 0.0 | 0.00 | 0.00 | 0.00 | 93 | 1027.5 |
| 20260505183048 | 51 | 0 | 0.0 | 0.0 | 0.00 | 0.00 | 0.00 | 93 | 1027.5 |
| 20260505182540 | 51 | 197 | 0.0 | 0.0 | 0.00 | 0.00 | 0.00 | 93 | 1027.4 |
| 20260505182039 | 50 | 0 | 0.0 | 0.0 | 0.00 | 0.00 | 0.00 | 93 | 1027.5 |
| 20260505181554 | 50 | 0 | 0.0 | 1.7 | 0.00 | 0.00 | 0.00 | 92 | 1027.6 |
| 20260505181038 | 51 | 0 | 0.9 | 1.7 | 0.00 | 0.00 | 0.00 | 92 | 1027.5 |
| 20260505180538 | 51 | 195 | 0.0 | 0.9 | 0.00 | 0.00 | 0.00 | 93 | 1027.5 |
| 20260505180047 | 51 | 0 | 0.0 | 0.0 | 0.00 | 0.00 | 0.00 | 93 | 1027.5 |
| 20260505175539 | 51 | 0 | 0.0 | 0.0 | 0.00 | 0.00 | 0.00 | 93 | 1027.5 |
| 20260505175039 | 51 | 0 | 0.0 | 0.0 | 0.00 | 0.00 | 0.00 | 93 | 1027.6 |
| 20260505174557 | 51 | 0 | 0.0 | 0.0 | 0.00 | 0.00 | 0.00 | 93 | 1027.6 |
| 20260505174040 | 51 | 0 | 0.0 | 0.0 | 0.00 | 0.00 | 0.00 | 93 | 1027.7 |
| 20260505173538 | 52 | 0 | 0.0 | 0.9 | 0.00 | 0.00 | 0.00 | 93 | 1027.7 |
| 20260505173054 | 52 | 0 | 0.0 | 1.7 | 0.00 | 0.00 | 0.00 | 93 | 1027.7 |
| 20260505172538 | 52 | 0 | 0.0 | 1.7 | 0.00 | 0.00 | 0.00 | 93 | 1027.7 |
| 20260505172039 | 52 | 0 | 0.0 | 0.9 | 0.00 | 0.00 | 0.00 | 93 | 1027.7 |
| 20260505171546 | 52 | 0 | 0.0 | 0.9 | 0.00 | 0.00 | 0.00 | 93 | 1027.8 |
| 20260505171039 | 52 | 196 | 0.0 | 0.9 | 0.00 | 0.00 | 0.00 | 93 | 1027.8 |
| 20260505170538 | 52 | 0 | 0.0 | 0.0 | 0.00 | 0.00 | 0.00 | 93 | 1027.8 |
| 20260505170051 | 52 | 0 | 0.0 | 0.9 | 0.00 | 0.00 | 0.00 | 93 | 1027.8 |
| 20260505165543 | 52 | 0 | 0.0 | 0.9 | 0.00 | 0.00 | 0.00 | 93 | 1027.9 |
| 20260505165038 | 52 | 0 | 0.0 | 0.0 | 0.00 | 0.00 | 0.00 | 93 | 1028.0 |
| 20260505164551 | 52 | 0 | 0.0 | 0.9 | 0.00 | 0.00 | 0.00 | 93 | 1028.0 |
| 20260505164039 | 52 | 0 | 0.0 | 0.9 | 0.00 | 0.00 | 0.00 | 94 | 1027.9 |
| 20260505163538 | 52 | 195 | 0.0 | 0.9 | 0.00 | 0.00 | 0.00 | 94 | 1028.0 |
| 20260505163048 | 52 | 195 | 0.0 | 0.9 | 0.00 | 0.00 | 0.00 | 94 | 1027.9 |
| 20260505162538 | 51 | 195 | 0.0 | 0.9 | 0.00 | 0.00 | 0.00 | 94 | 1028.0 |
| 20260505162039 | 51 | 177 | 0.0 | 0.9 | 0.00 | 0.00 | 0.00 | 94 | 1028.0 |
| 20260505161548 | 51 | 0 | 0.0 | 1.7 | 0.00 | 0.00 | 0.00 | 94 | 1028.1 |
| 20260505161039 | 51 | 0 | 0.0 | 1.7 | 0.00 | 0.00 | 0.00 | 94 | 1028.0 |
| 20260505160539 | 51 | 178 | 0.0 | 1.7 | 0.00 | 0.00 | 0.00 | 94 | 1028.0 |
| 20260505153051 | 51 | 177 | 0.0 | 0.9 | 0.00 | 0.00 | 0.00 | 93 | 1028.2 |
| 20260505152538 | 51 | 177 | 0.0 | 0.9 | 0.00 | 0.00 | 0.00 | 93 | 1028.1 |
| 20260505152039 | 51 | 176 | 0.0 | 0.9 | 0.00 | 0.00 | 0.00 | 93 | 1028.1 |
| 20260505151547 | 51 | 0 | 0.0 | 0.9 | 0.00 | 0.00 | 0.00 | 93 | 1028.2 |
| 20260505151039 | 51 | 0 | 0.0 | 0.0 | 0.00 | 0.00 | 0.00 | 93 | 1028.3 |
| 20260505150540 | 51 | 0 | 0.0 | 0.0 | 0.00 | 0.00 | 0.00 | 93 | 1028.3 |
| 20260505140539 | 51 | 0 | 0.0 | 0.9 | 0.00 | 0.00 | 0.00 | 93 | 1028.9 |
| 20260505130112 | 50 | 90 | 0.0 | 1.7 | 0.00 | 0.00 | 0.00 | 94 | 1029.3 |
| 20260505124556 | 50 | 73 | 0.9 | 3.5 | 0.00 | 0.00 | 0.00 | 94 | 1029.5 |
| 20260505124041 | 50 | 65 | 0.0 | 1.7 | 0.00 | 0.00 | 0.00 | 95 | 1029.6 |
| 20260505123540 | 49 | 105 | 0.9 | 1.7 | 0.00 | 0.00 | 0.00 | 95 | 1029.4 |
| 20260505123105 | 49 | 0 | 0.0 | 0.9 | 0.00 | 0.00 | 0.00 | 95 | 1029.5 |
| 20260505122539 | 49 | 105 | 0.0 | 1.7 | 0.00 | 0.00 | 0.00 | 95 | 1029.6 |
| 20260505122039 | 49 | 105 | 0.9 | 1.7 | 0.00 | 0.00 | 0.00 | 95 | 1029.8 |
| 20260505121549 | 49 | 101 | 0.0 | 1.7 | 0.00 | 0.00 | 0.00 | 95 | 1029.8 |
| 20260505121039 | 48 | 101 | 0.0 | 1.7 | 0.00 | 0.00 | 0.00 | 95 | 1029.8 |
| 20260505120539 | 48 | 101 | 0.9 | 1.7 | 0.00 | 0.00 | 0.00 | 95 | 1029.8 |
| 20260505120049 | 48 | 101 | 0.0 | 0.9 | 0.00 | 0.00 | 0.00 | 95 | 1029.9 |
| 20260505115539 | 48 | 101 | 0.0 | 0.9 | 0.00 | 0.00 | 0.00 | 95 | 1029.8 |
| 20260505115040 | 48 | 0 | 0.0 | 0.9 | 0.00 | 0.00 | 0.00 | 95 | 1029.8 |
| 20260505114551 | 48 | 0 | 0.0 | 0.9 | 0.00 | 0.00 | 0.00 | 95 | 1029.8 |
| 20260505114041 | 48 | 101 | 0.0 | 0.9 | 0.00 | 0.00 | 0.00 | 95 | 1029.9 |
| 20260505113538 | 47 | 0 | 0.0 | 1.7 | 0.00 | 0.00 | 0.00 | 95 | 1029.9 |
| 20260505113100 | 47 | 0 | 0.0 | 1.7 | 0.00 | 0.00 | 0.00 | 95 | 1030.0 |
| 20260505112540 | 47 | 101 | 0.9 | 1.7 | 0.00 | 0.00 | 0.00 | 95 | 1030.0 |
| 20260505112041 | 47 | 0 | 0.0 | 1.7 | 0.00 | 0.00 | 0.00 | 95 | 1030.1 |
| 20260505111549 | 47 | 101 | 0.9 | 1.7 | 0.00 | 0.00 | 0.00 | 95 | 1030.0 |
| 20260505111040 | 46 | 0 | 0.0 | 0.9 | 0.00 | 0.00 | 0.00 | 95 | 1030.0 |
| 20260505110540 | 46 | 100 | 0.0 | 0.9 | 0.00 | 0.00 | 0.00 | 95 | 1030.1 |
| 20260505102039 | 44 | 0 | 0.0 | 0.9 | 0.00 | 0.00 | 0.00 | 94 | 1030.7 |
| 20260505101552 | 44 | 0 | 0.0 | 0.9 | 0.00 | 0.00 | 0.00 | 94 | 1030.7 |
| 20260505101037 | 44 | 86 | 0.0 | 0.9 | 0.00 | 0.00 | 0.00 | 93 | 1030.6 |
| 20260505100540 | 44 | 0 | 0.0 | 0.0 | 0.00 | 0.00 | 0.00 | 95 | 1030.8 |
| 20260505100051 | 44 | 0 | 0.0 | 0.0 | 0.00 | 0.00 | 0.00 | 93 | 1030.7 |
| 20260505095540 | 44 | 0 | 0.0 | 0.0 | 0.00 | 0.00 | 0.00 | 93 | 1030.7 |
| 20260505095038 | 45 | 0 | 0.0 | 0.0 | 0.00 | 0.00 | 0.00 | 94 | 1030.7 |
| 20260505094601 | 45 | 0 | 0.0 | 0.0 | 0.00 | 0.00 | 0.00 | 94 | 1030.7 |
| 20260505094036 | 45 | 0 | 0.0 | 0.0 | 0.00 | 0.00 | 0.00 | 94 | 1030.6 |
| 20260505093540 | 44 | 0 | 0.0 | 0.9 | 0.00 | 0.00 | 0.00 | 94 | 1030.6 |
| 20260505093054 | 44 | 0 | 0.0 | 0.9 | 0.00 | 0.00 | 0.00 | 94 | 1030.6 |
| 20260505092539 | 44 | 86 | 0.0 | 1.7 | 0.00 | 0.00 | 0.00 | 93 | 1030.7 |
| 20260505092037 | 44 | 0 | 0.0 | 1.7 | 0.00 | 0.00 | 0.00 | 93 | 1030.7 |
| 20260505091544 | 44 | 86 | 0.9 | 1.7 | 0.00 | 0.00 | 0.00 | 92 | 1030.6 |
| 20260505091037 | 45 | 0 | 0.0 | 1.7 | 0.00 | 0.00 | 0.00 | 93 | 1030.6 |
| 20260505090539 | 45 | 0 | 0.0 | 1.7 | 0.00 | 0.00 | 0.00 | 93 | 1030.4 |
| 20260505090046 | 45 | 80 | 0.9 | 1.7 | 0.00 | 0.00 | 0.00 | 93 | 1030.3 |
| 20260505085540 | 45 | 59 | 0.9 | 1.7 | 0.00 | 0.00 | 0.00 | 93 | 1030.2 |
| 20260505085040 | 45 | 56 | 0.9 | 2.6 | 0.00 | 0.00 | 0.00 | 93 | 1030.3 |
| 20260505084556 | 45 | 56 | 1.7 | 2.6 | 0.00 | 0.00 | 0.00 | 92 | 1030.3 |
| 20260505084040 | 45 | 56 | 1.7 | 1.7 | 0.00 | 0.00 | 0.00 | 93 | 1030.3 |
| 20260505083539 | 46 | 56 | 1.7 | 1.7 | 0.00 | 0.00 | 0.00 | 92 | 1030.3 |
| 20260505083059 | 46 | 56 | 1.7 | 2.6 | 0.00 | 0.00 | 0.00 | 93 | 1030.4 |
| 20260505082539 | 46 | 56 | 1.7 | 2.6 | 0.00 | 0.00 | 0.00 | 93 | 1030.4 |
| 20260505082040 | 45 | 57 | 1.7 | 2.6 | 0.00 | 0.00 | 0.00 | 92 | 1030.5 |
| 20260505081558 | 45 | 56 | 2.6 | 2.6 | 0.00 | 0.00 | 0.00 | 92 | 1030.6 |
| 20260505081037 | 45 | 60 | 1.7 | 2.6 | 0.00 | 0.00 | 0.00 | 92 | 1030.6 |
| 20260505080539 | 45 | 60 | 1.7 | 2.6 | 0.00 | 0.00 | 0.00 | 91 | 1030.5 |
| 20260505080052 | 45 | 60 | 1.7 | 2.6 | 0.00 | 0.00 | 0.00 | 90 | 1030.7 |
| 20260505075538 | 46 | 55 | 0.9 | 3.5 | 0.00 | 0.00 | 0.00 | 89 | 1030.6 |
| 20260505075036 | 46 | 56 | 2.6 | 3.5 | 0.00 | 0.00 | 0.00 | 88 | 1030.6 |
| 20260505074546 | 47 | 59 | 0.0 | 1.7 | 0.00 | 0.00 | 0.00 | 88 | 1030.6 |
| 20260505074042 | 48 | 59 | 0.9 | 1.7 | 0.00 | 0.00 | 0.00 | 87 | 1030.7 |
| 20260505073609 | 49 | 59 | 0.0 | 1.7 | 0.00 | 0.00 | 0.00 | 86 | 1030.7 |
| 20260505073051 | 50 | 0 | 0.0 | 0.0 | 0.00 | 0.00 | 0.00 | 89 | 1030.8 |
| 20260505072540 | 50 | 0 | 0.0 | 0.0 | 0.00 | 0.00 | 0.00 | 89 | 1030.8 |
| 20260505072040 | 50 | 0 | 0.0 | 0.0 | 0.00 | 0.00 | 0.00 | 89 | 1030.8 |
| 20260505071551 | 50 | 0 | 0.0 | 0.0 | 0.00 | 0.00 | 0.00 | 89 | 1030.8 |
| 20260505071040 | 50 | 0 | 0.0 | 0.0 | 0.00 | 0.00 | 0.00 | 89 | 1030.7 |
| 20260505070540 | 50 | 0 | 0.0 | 0.0 | 0.00 | 0.00 | 0.00 | 89 | 1030.7 |
| 20260505070052 | 50 | 0 | 0.0 | 0.0 | 0.00 | 0.00 | 0.00 | 89 | 1030.8 |
| 20260505065540 | 50 | 0 | 0.0 | 0.0 | 0.00 | 0.00 | 0.00 | 89 | 1030.8 |
| 20260505065038 | 50 | 0 | 0.0 | 0.0 | 0.00 | 0.00 | 0.00 | 88 | 1030.8 |
| 20260505064549 | 50 | 0 | 0.0 | 0.0 | 0.00 | 0.00 | 0.00 | 88 | 1030.9 |
| 20260505064038 | 50 | 0 | 0.0 | 0.0 | 0.00 | 0.00 | 0.00 | 87 | 1030.8 |
| 20260505063540 | 51 | 0 | 0.0 | 0.0 | 0.00 | 0.00 | 0.00 | 86 | 1030.8 |
| 20260505063049 | 51 | 0 | 0.0 | 0.9 | 0.00 | 0.00 | 0.00 | 87 | 1030.8 |
| 20260505062538 | 52 | 0 | 0.0 | 0.9 | 0.00 | 0.00 | 0.00 | 86 | 1030.8 |
| 20260505062038 | 52 | 225 | 0.0 | 0.9 | 0.00 | 0.00 | 0.00 | 86 | 1030.8 |
| 20260505061550 | 52 | 225 | 0.0 | 0.9 | 0.00 | 0.00 | 0.00 | 86 | 1030.8 |
| 20260505061040 | 52 | 224 | 0.0 | 0.9 | 0.00 | 0.00 | 0.00 | 85 | 1030.8 |
| 20260505060540 | 53 | 225 | 0.0 | 0.9 | 0.00 | 0.00 | 0.00 | 86 | 1030.8 |
| 20260505060050 | 53 | 225 | 0.0 | 0.0 | 0.00 | 0.00 | 0.00 | 85 | 1030.7 |
| 20260505055540 | 53 | 0 | 0.0 | 0.9 | 0.00 | 0.00 | 0.00 | 85 | 1030.7 |
| 20260505055040 | 53 | 0 | 0.0 | 0.9 | 0.00 | 0.00 | 0.00 | 85 | 1030.7 |
| 20260505054557 | 53 | 225 | 0.0 | 0.9 | 0.00 | 0.00 | 0.00 | 85 | 1030.7 |
| 20260505054037 | 54 | 225 | 0.0 | 0.9 | 0.00 | 0.00 | 0.00 | 84 | 1030.7 |
| 20260505053537 | 54 | 224 | 0.0 | 0.9 | 0.00 | 0.00 | 0.00 | 84 | 1030.7 |
| 20260505053049 | 54 | 225 | 0.9 | 0.9 | 0.00 | 0.00 | 0.00 | 83 | 1030.8 |
| 20260505052536 | 54 | 225 | 0.9 | 0.9 | 0.00 | 0.00 | 0.00 | 83 | 1030.8 |
| 20260505052039 | 55 | 225 | 0.9 | 1.7 | 0.00 | 0.00 | 0.00 | 82 | 1030.8 |
| 20260505051552 | 55 | 225 | 0.9 | 1.7 | 0.00 | 0.00 | 0.00 | 81 | 1030.8 |
| 20260505051036 | 56 | 225 | 0.9 | 1.7 | 0.00 | 0.00 | 0.00 | 80 | 1030.8 |
| 20260505050542 | 56 | 225 | 0.0 | 1.7 | 0.00 | 0.00 | 0.00 | 79 | 1030.9 |
| 20260505041550 | 60 | 227 | 2.6 | 3.5 | 0.00 | 0.00 | 0.00 | 72 | 1030.9 |
| 20260505041039 | 60 | 231 | 2.6 | 4.3 | 0.00 | 0.00 | 0.00 | 72 | 1030.8 |
| 20260505040536 | 60 | 236 | 2.6 | 4.3 | 0.00 | 0.00 | 0.00 | 72 | 1030.9 |
| 20260505040054 | 60 | 238 | 2.6 | 4.3 | 0.00 | 0.00 | 0.00 | 71 | 1030.9 |
| 20260505035537 | 61 | 229 | 2.6 | 4.3 | 0.00 | 0.00 | 0.00 | 70 | 1030.9 |
| 20260505035039 | 61 | 229 | 2.6 | 4.3 | 0.00 | 0.00 | 0.00 | 71 | 1030.9 |
| 20260505034552 | 61 | 236 | 2.6 | 4.3 | 0.00 | 0.00 | 0.00 | 70 | 1031.0 |
| 20260505034040 | 61 | 236 | 2.6 | 5.2 | 0.00 | 0.00 | 0.00 | 69 | 1031.1 |
| 20260505033540 | 61 | 259 | 3.5 | 7.0 | 0.00 | 0.00 | 0.00 | 69 | 1031.0 |
| 20260505033049 | 61 | 294 | 2.6 | 7.8 | 0.00 | 0.00 | 0.00 | 69 | 1031.1 |
| 20260505032542 | 61 | 250 | 3.5 | 7.8 | 0.00 | 0.00 | 0.00 | 69 | 1031.0 |
| 20260505032039 | 61 | 234 | 2.6 | 9.6 | 0.00 | 0.00 | 0.00 | 70 | 1031.0 |
| 20260505031557 | 61 | 309 | 4.3 | 9.6 | 0.00 | 0.00 | 0.00 | 69 | 1031.0 |
| 20260505031042 | 61 | 235 | 3.5 | 7.0 | 0.00 | 0.00 | 0.00 | 68 | 1031.1 |
| 20260505030540 | 61 | 239 | 3.5 | 7.8 | 0.00 | 0.00 | 0.00 | 70 | 1031.0 |
| 20260505030054 | 61 | 253 | 3.5 | 7.8 | 0.00 | 0.00 | 0.00 | 68 | 1031.0 |
| 20260505025537 | 61 | 261 | 3.5 | 7.8 | 0.00 | 0.00 | 0.00 | 69 | 1031.0 |
| 20260505025040 | 61 | 241 | 3.5 | 7.8 | 0.00 | 0.00 | 0.00 | 68 | 1030.9 |
| 20260505024550 | 61 | 294 | 1.7 | 7.0 | 0.00 | 0.00 | 0.00 | 71 | 1030.9 |
| 20260505024039 | 61 | 240 | 3.5 | 7.0 | 0.00 | 0.00 | 0.00 | 70 | 1030.9 |
| 20260505023536 | 61 | 229 | 1.7 | 7.0 | 0.00 | 0.00 | 0.00 | 68 | 1031.0 |
| 20260505023047 | 61 | 298 | 4.3 | 7.0 | 0.00 | 0.00 | 0.00 | 68 | 1031.0 |
| 20260505022540 | 61 | 265 | 2.6 | 7.8 | 0.00 | 0.00 | 0.00 | 68 | 1031.1 |
| 20260505022040 | 61 | 273 | 3.5 | 8.7 | 0.00 | 0.00 | 0.00 | 68 | 1031.1 |
| 20260505021549 | 61 | 250 | 4.3 | 8.7 | 0.00 | 0.00 | 0.00 | 67 | 1031.1 |
| 20260505021040 | 61 | 228 | 3.5 | 7.8 | 0.00 | 0.00 | 0.00 | 69 | 1031.1 |
| 20260505020540 | 61 | 284 | 2.6 | 8.7 | 0.00 | 0.00 | 0.00 | 67 | 1031.1 |
| 20260505020042 | 61 | 240 | 4.3 | 8.7 | 0.00 | 0.00 | 0.00 | 70 | 1031.0 |
| 20260505015540 | 61 | 234 | 3.5 | 7.0 | 0.00 | 0.00 | 0.00 | 70 | 1031.1 |
| 20260505015040 | 61 | 243 | 4.3 | 8.7 | 0.00 | 0.00 | 0.00 | 70 | 1031.2 |
| 20260505014602 | 61 | 237 | 1.7 | 8.7 | 0.00 | 0.00 | 0.00 | 69 | 1031.2 |
| 20260505014042 | 61 | 284 | 2.6 | 7.0 | 0.00 | 0.00 | 0.00 | 69 | 1031.3 |
| 20260505013538 | 61 | 266 | 3.5 | 7.0 | 0.00 | 0.00 | 0.00 | 68 | 1031.4 |
| 20260505013047 | 61 | 240 | 2.6 | 7.0 | 0.00 | 0.00 | 0.00 | 70 | 1031.4 |
| 20260505012540 | 61 | 246 | 2.6 | 7.8 | 0.00 | 0.00 | 0.00 | 69 | 1031.4 |
| 20260505012041 | 61 | 246 | 2.6 | 7.8 | 0.00 | 0.00 | 0.00 | 69 | 1031.4 |
| 20260505011551 | 60 | 268 | 2.6 | 6.1 | 0.00 | 0.00 | 0.00 | 69 | 1031.4 |
| 20260505011040 | 60 | 257 | 2.6 | 7.0 | 0.00 | 0.00 | 0.00 | 71 | 1031.5 |
| 20260505010543 | 60 | 217 | 2.6 | 7.0 | 0.00 | 0.00 | 0.00 | 70 | 1031.5 |
| 20260505010045 | 60 | 244 | 3.5 | 7.0 | 0.00 | 0.00 | 0.00 | 70 | 1031.7 |
| 20260505005540 | 60 | 240 | 3.5 | 7.0 | 0.00 | 0.00 | 0.00 | 69 | 1031.6 |
| 20260505005042 | 60 | 260 | 2.6 | 5.2 | 0.00 | 0.00 | 0.00 | 69 | 1031.7 |
| 20260505004541 | 60 | 257 | 2.6 | 8.7 | 0.00 | 0.00 | 0.00 | 70 | 1031.8 |
| 20260505004038 | 60 | 232 | 2.6 | 9.6 | 0.00 | 0.00 | 0.00 | 70 | 1032.0 |
| 20260505003539 | 60 | 253 | 3.5 | 9.6 | 0.00 | 0.00 | 0.00 | 70 | 1032.1 |
| 20260505003053 | 60 | 267 | 2.6 | 7.0 | 0.00 | 0.00 | 0.00 | 71 | 1032.3 |
| 20260505002540 | 60 | 217 | 2.6 | 5.2 | 0.00 | 0.00 | 0.00 | 69 | 1032.3 |
| 20260505002040 | 60 | 301 | 1.7 | 5.2 | 0.00 | 0.00 | 0.00 | 70 | 1032.5 |
| 20260505001547 | 59 | 236 | 1.7 | 5.2 | 0.00 | 0.00 | 0.00 | 74 | 1032.5 |
| 20260505001039 | 59 | 228 | 1.7 | 4.3 | 0.00 | 0.00 | 0.00 | 70 | 1032.6 |
| 20260505000540 | 59 | 235 | 3.5 | 7.0 | 0.00 | 0.00 | 0.00 | 70 | 1032.7 |
| 20260505000055 | 59 | 231 | 2.6 | 9.6 | 0.00 | 0.00 | 0.00 | 71 | 1032.6 |
| 20260504235542 | 59 | 271 | 3.5 | 9.6 | 0.00 | 0.00 | 0.00 | 71 | 1032.7 |
| 20260504235043 | 59 | 235 | 3.5 | 9.6 | 0.00 | 0.00 | 0.00 | 71 | 1032.8 |
| 20260504234551 | 59 | 241 | 3.5 | 8.7 | 0.00 | 0.00 | 0.00 | 70 | 1032.9 |
| 20260504234040 | 59 | 294 | 2.6 | 8.7 | 0.00 | 0.00 | 0.00 | 71 | 1033.1 |
| 20260504233542 | 59 | 226 | 4.3 | 7.8 | 0.00 | 0.00 | 0.00 | 71 | 1033.2 |
| 20260504233043 | 58 | 240 | 3.5 | 7.0 | 0.00 | 0.00 | 0.00 | 71 | 1033.3 |
| 20260504232540 | 58 | 240 | 2.6 | 7.0 | 0.00 | 0.00 | 0.00 | 72 | 1033.3 |
| 20260504232040 | 58 | 335 | 2.6 | 7.0 | 0.00 | 0.00 | 0.00 | 72 | 1033.4 |
| 20260504231549 | 58 | 269 | 2.6 | 7.0 | 0.00 | 0.00 | 0.00 | 73 | 1033.3 |
| 20260504231038 | 58 | 273 | 3.5 | 7.0 | 0.00 | 0.00 | 0.00 | 72 | 1033.3 |
| 20260504230539 | 58 | 290 | 2.6 | 7.0 | 0.00 | 0.00 | 0.00 | 72 | 1033.4 |
| 20260504230050 | 58 | 323 | 1.7 | 4.3 | 0.00 | 0.00 | 0.00 | 74 | 1033.3 |
| 20260504225539 | 58 | 236 | 1.7 | 4.3 | 0.00 | 0.00 | 0.00 | 76 | 1033.3 |
| 20260504225042 | 58 | 265 | 0.9 | 4.3 | 0.00 | 0.00 | 0.00 | 78 | 1033.3 |
| 20260504224547 | 58 | 263 | 0.9 | 3.5 | 0.00 | 0.00 | 0.00 | 78 | 1033.4 |
| 20260504224040 | 57 | 49 | 0.9 | 4.3 | 0.00 | 0.00 | 0.00 | 78 | 1033.4 |
| 20260504223540 | 57 | 69 | 1.7 | 4.3 | 0.00 | 0.00 | 0.00 | 79 | 1033.3 |
| 20260504223043 | 57 | 237 | 0.9 | 2.6 | 0.00 | 0.00 | 0.00 | 80 | 1033.3 |
| 20260504222542 | 57 | 238 | 0.9 | 2.6 | 0.00 | 0.00 | 0.00 | 79 | 1033.2 |
| 20260504222040 | 57 | 153 | 0.0 | 2.6 | 0.00 | 0.00 | 0.00 | 81 | 1033.0 |
| 20260504221548 | 56 | 0 | 0.0 | 4.3 | 0.00 | 0.00 | 0.00 | 82 | 1033.2 |
| 20260504221040 | 56 | 73 | 1.7 | 4.3 | 0.00 | 0.00 | 0.00 | 81 | 1033.2 |
| 20260504220540 | 56 | 71 | 1.7 | 6.1 | 0.00 | 0.00 | 0.00 | 81 | 1033.1 |
| 20260504220050 | 56 | 68 | 1.7 | 6.1 | 0.00 | 0.00 | 0.00 | 82 | 1033.1 |
| 20260504215540 | 56 | 78 | 0.9 | 4.3 | 0.00 | 0.00 | 0.00 | 82 | 1033.3 |
| 20260504215040 | 55 | 106 | 1.7 | 5.2 | 0.00 | 0.00 | 0.00 | 83 | 1033.3 |
| 20260504214554 | 55 | 71 | 1.7 | 5.2 | 0.00 | 0.00 | 0.00 | 83 | 1033.2 |
| 20260504214039 | 55 | 62 | 0.9 | 4.3 | 0.00 | 0.00 | 0.00 | 83 | 1033.2 |
| 20260504213539 | 55 | 36 | 2.6 | 7.0 | 0.00 | 0.00 | 0.00 | 82 | 1033.3 |
| 20260504213044 | 55 | 86 | 1.7 | 7.0 | 0.00 | 0.00 | 0.00 | 82 | 1033.3 |
| 20260504212540 | 55 | 76 | 0.9 | 2.6 | 0.00 | 0.00 | 0.00 | 83 | 1033.3 |
| 20260504212043 | 55 | 71 | 0.0 | 0.9 | 0.00 | 0.00 | 0.00 | 83 | 1033.4 |
| 20260504211546 | 55 | 0 | 0.0 | 2.6 | 0.00 | 0.00 | 0.00 | 84 | 1033.3 |
| 20260504211041 | 54 | 0 | 0.0 | 2.6 | 0.00 | 0.00 | 0.00 | 83 | 1033.4 |
| 20260504210540 | 54 | 0 | 0.0 | 1.7 | 0.00 | 0.00 | 0.00 | 84 | 1033.5 |
| 20260504210055 | 54 | 0 | 0.0 | 1.7 | 0.00 | 0.00 | 0.00 | 84 | 1033.4 |
| 20260504205540 | 54 | 87 | 0.0 | 0.9 | 0.00 | 0.00 | 0.00 | 84 | 1033.5 |
| 20260504205040 | 54 | 0 | 0.0 | 0.9 | 0.00 | 0.00 | 0.00 | 85 | 1033.6 |
| 20260504204607 | 53 | 0 | 0.0 | 0.9 | 0.00 | 0.00 | 0.00 | 85 | 1033.5 |
| 20260504204039 | 53 | 0 | 0.0 | 0.9 | 0.00 | 0.00 | 0.00 | 85 | 1033.6 |
| 20260504203540 | 53 | 0 | 0.0 | 0.9 | 0.00 | 0.00 | 0.00 | 85 | 1033.6 |
| 20260504203115 | 53 | 0 | 0.0 | 0.9 | 0.00 | 0.00 | 0.00 | 85 | 1033.5 |
| 20260504202540 | 53 | 87 | 0.0 | 1.7 | 0.00 | 0.00 | 0.00 | 85 | 1033.5 |
| 20260504202040 | 53 | 0 | 0.0 | 1.7 | 0.00 | 0.00 | 0.00 | 85 | 1033.5 |
| 20260504201549 | 52 | 229 | 0.0 | 2.6 | 0.00 | 0.00 | 0.00 | 84 | 1033.6 |
| 20260504201040 | 52 | 0 | 0.0 | 2.6 | 0.00 | 0.00 | 0.00 | 84 | 1033.6 |
| 20260504200540 | 52 | 232 | 0.0 | 2.6 | 0.00 | 0.00 | 0.00 | 84 | 1033.5 |
| 20260504200053 | 53 | 0 | 0.0 | 2.6 | 0.00 | 0.00 | 0.00 | 84 | 1033.4 |
| 20260504195540 | 53 | 232 | 1.7 | 2.6 | 0.00 | 0.00 | 0.00 | 83 | 1033.5 |
| 20260504195041 | 53 | 231 | 0.0 | 0.9 | 0.00 | 0.00 | 0.00 | 83 | 1033.4 |
| 20260504194544 | 53 | 0 | 0.0 | 0.9 | 0.00 | 0.00 | 0.00 | 83 | 1033.3 |
| 20260504194040 | 53 | 231 | 0.0 | 0.9 | 0.00 | 0.00 | 0.00 | 83 | 1033.4 |
| 20260504193540 | 52 | 231 | 0.0 | 0.9 | 0.00 | 0.00 | 0.00 | 83 | 1033.4 |
| 20260504193051 | 52 | 231 | 0.0 | 0.9 | 0.00 | 0.00 | 0.00 | 83 | 1033.2 |
| 20260504192538 | 52 | 231 | 0.9 | 0.9 | 0.00 | 0.00 | 0.00 | 83 | 1033.3 |